PAC3 CYKA-CYKA

Flight info

Callsign PAC3
Flight time 0h 10m
Altitude 8000
Route OLONA2 OLONA DCT OVENA
Aircraft C208/L-SDF/C

Departure

Time 2026-04-13 20:47
Airport Kamloops John Moose Fulton Field Regional Airport (CYKA)

Arrival

Time 2026-04-13 20:57
Airport Kamloops John Moose Fulton Field Regional Airport (CYKA)
Time Latitude Longitude Altitude Speed Heading
2026-04-13 19:42 50.69547 -119.88983 6445 ft 161 kts 93°
2026-04-13 19:43 50.69521 -119.87214 6546 ft 162 kts 93°
2026-04-13 19:43 50.69497 -119.85436 6647 ft 163 kts 93°
2026-04-13 19:43 50.69467 -119.83639 6746 ft 164 kts 92°
2026-04-13 19:43 50.69437 -119.81833 6859 ft 166 kts 93°
2026-04-13 19:44 50.69405 -119.80014 6966 ft 166 kts 92°
2026-04-13 19:44 50.69376 -119.78192 7080 ft 167 kts 93°
2026-04-13 19:44 50.69352 -119.76368 7188 ft 166 kts 93°
2026-04-13 19:44 50.69330 -119.74547 7281 ft 166 kts 93°
2026-04-13 19:45 50.69289 -119.72720 7397 ft 167 kts 93°
2026-04-13 19:45 50.69246 -119.70876 7502 ft 169 kts 93°
2026-04-13 19:45 50.69207 -119.69034 7578 ft 168 kts 93°
2026-04-13 19:45 50.69174 -119.67201 7681 ft 167 kts 92°
2026-04-13 19:46 50.69146 -119.65373 7781 ft 167 kts 92°
2026-04-13 19:46 50.69122 -119.63537 7890 ft 168 kts 92°
2026-04-13 19:46 50.69089 -119.61688 8012 ft 169 kts 93°
2026-04-13 19:46 50.69051 -119.59779 7952 ft 179 kts 93°
2026-04-13 19:47 50.69009 -119.57789 7902 ft 183 kts 93°
2026-04-13 19:47 50.68969 -119.55783 7855 ft 183 kts 92°
2026-04-13 19:47 50.68932 -119.53792 7845 ft 180 kts 92°
2026-04-13 19:47 50.68896 -119.51825 7845 ft 178 kts 92°
2026-04-13 19:48 50.68860 -119.49897 7862 ft 179 kts 92°
2026-04-13 19:48 50.68822 -119.47930 7861 ft 180 kts 92°
2026-04-13 19:48 50.68785 -119.45954 7845 ft 180 kts 93°
2026-04-13 19:48 50.68744 -119.43982 7857 ft 179 kts 92°
2026-04-13 19:49 50.68705 -119.42020 7858 ft 179 kts 92°
2026-04-13 19:49 50.68673 -119.40059 7660 ft 178 kts 94°
2026-04-13 19:49 50.68620 -119.38160 7192 ft 169 kts 96°
2026-04-13 19:49 50.68566 -119.36343 6725 ft 163 kts 96°
2026-04-13 19:50 50.68519 -119.34573 6280 ft 160 kts 95°
2026-04-13 19:50 50.68480 -119.32830 5828 ft 158 kts 94°
2026-04-13 19:50 50.68444 -119.31107 5383 ft 157 kts 94°
2026-04-13 19:50 50.68411 -119.29398 4925 ft 156 kts 95°
2026-04-13 19:51 50.68376 -119.27703 4473 ft 155 kts 96°
2026-04-13 19:51 50.68336 -119.25999 4011 ft 156 kts 94°
2026-04-13 19:51 50.68300 -119.24312 3514 ft 153 kts 93°
2026-04-13 19:51 50.68374 -119.22674 3047 ft 148 kts 67°
2026-04-13 19:52 50.68965 -119.21350 2680 ft 149 kts 43°
2026-04-13 19:52 50.69913 -119.20837 2279 ft 144 kts 351°
2026-04-13 19:52 50.70690 -119.21500 2153 ft 122 kts 299°
2026-04-13 19:52 50.70677 -119.22564 2122 ft 92 kts 229°
2026-04-13 19:53 50.70135 -119.22749 1979 ft 85 kts 157°
2026-04-13 19:53 50.69604 -119.22683 1917 ft 79 kts 199°
2026-04-13 19:53 50.69100 -119.23018 1961 ft 76 kts 209°
2026-04-13 19:53 50.68621 -119.23083 1821 ft 70 kts 158°
2026-04-13 19:54 50.68295 -119.22890 1821 ft 26 kts 160°
2026-04-13 19:54 50.68216 -119.22910 1818 ft 10 kts 255°
2026-04-13 19:54 50.68281 -119.23008 1815 ft 17 kts 321°
2026-04-13 19:54 50.68378 -119.23126 1823 ft 18 kts 320°
2026-04-13 19:55 50.68421 -119.23211 1814 ft 6 kts 231°
2026-04-13 19:55 50.68417 -119.23220 1817 ft 0 kts 231°
2026-04-13 19:55 50.68417 -119.23219 1817 ft 0 kts 231°
2026-04-13 19:56 50.68417 -119.23220 1817 ft 0 kts 231°
2026-04-13 19:58 50.68401 -119.23255 1814 ft 9 kts 247°
2026-04-13 19:58 50.68460 -119.23351 1814 ft 12 kts 321°
2026-04-13 19:58 50.68519 -119.23328 1819 ft 15 kts 57°
2026-04-13 19:58 50.68594 -119.23174 1823 ft 16 kts 51°
2026-04-13 19:59 50.68678 -119.23117 1819 ft 15 kts 341°
2026-04-13 19:59 50.68758 -119.23180 1818 ft 10 kts 313°
2026-04-13 19:59 50.68792 -119.23212 1823 ft 6 kts 56°
2026-04-13 19:59 50.68780 -119.23184 1817 ft 0 kts 161°
2026-04-13 20:00 50.68684 -119.23128 1817 ft 41 kts 159°
2026-04-13 20:00 50.68261 -119.22867 1831 ft 84 kts 162°
2026-04-13 20:00 50.67715 -119.22513 2073 ft 83 kts 159°
2026-04-13 20:00 50.67167 -119.22133 2225 ft 92 kts 157°
2026-04-13 20:01 50.66557 -119.21734 2429 ft 97 kts 162°
2026-04-13 20:01 50.65894 -119.21388 2627 ft 104 kts 163°
2026-04-13 20:01 50.65111 -119.21117 2688 ft 128 kts 178°
2026-04-13 20:01 50.64220 -119.21546 2725 ft 143 kts 214°
2026-04-13 20:02 50.63421 -119.22524 2879 ft 145 kts 217°
2026-04-13 20:02 50.62562 -119.23320 3098 ft 143 kts 205°
2026-04-13 20:02 50.61633 -119.23852 3305 ft 141 kts 197°
2026-04-13 20:02 50.60683 -119.24210 3523 ft 139 kts 193°
2026-04-13 20:03 50.59744 -119.24469 3718 ft 135 kts 192°
2026-04-13 20:03 50.58822 -119.24685 3952 ft 132 kts 195°
2026-04-13 20:03 50.57988 -119.25088 4206 ft 126 kts 196°
2026-04-13 20:03 50.57111 -119.25231 4387 ft 128 kts 186°
2026-04-13 20:04 50.56220 -119.25283 4579 ft 128 kts 186°
2026-04-13 20:04 50.55331 -119.25418 4771 ft 128 kts 190°
2026-04-13 20:04 50.54453 -119.25592 4937 ft 126 kts 190°
2026-04-13 20:04 50.53577 -119.25787 5098 ft 128 kts 194°
2026-04-13 20:05 50.52692 -119.25992 5309 ft 130 kts 193°
2026-04-13 20:05 50.51790 -119.26191 5527 ft 132 kts 191°
2026-04-13 20:05 50.50877 -119.26381 5740 ft 133 kts 192°
2026-04-13 20:05 50.49960 -119.26575 5949 ft 133 kts 192°
2026-04-13 20:06 50.49054 -119.26765 6152 ft 133 kts 192°
2026-04-13 20:06 50.48134 -119.26952 6352 ft 134 kts 191°
2026-04-13 20:06 50.47207 -119.27137 6546 ft 135 kts 191°
2026-04-13 20:06 50.46284 -119.27333 6717 ft 133 kts 194°
2026-04-13 20:07 50.45365 -119.27503 6877 ft 132 kts 189°
2026-04-13 20:07 50.44455 -119.27670 7074 ft 131 kts 195°
2026-04-13 20:07 50.43549 -119.27894 7286 ft 133 kts 194°
2026-04-13 20:07 50.42632 -119.28101 7493 ft 134 kts 194°
2026-04-13 20:08 50.41709 -119.28296 7690 ft 133 kts 192°
2026-04-13 20:08 50.40788 -119.28472 7885 ft 133 kts 193°
2026-04-13 20:08 50.39869 -119.28659 8096 ft 133 kts 193°
2026-04-13 20:08 50.38949 -119.28851 8304 ft 134 kts 194°
2026-04-13 20:09 50.38026 -119.29042 8518 ft 134 kts 193°
2026-04-13 20:09 50.37097 -119.29235 8727 ft 135 kts 193°
2026-04-13 20:09 50.36164 -119.29430 8945 ft 136 kts 193°
2026-04-13 20:09 50.35191 -119.29632 8959 ft 150 kts 193°
2026-04-13 20:10 50.34118 -119.29866 8910 ft 160 kts 193°
2026-04-13 20:10 50.33002 -119.30100 8880 ft 164 kts 193°
2026-04-13 20:10 50.31868 -119.30333 8862 ft 165 kts 192°
2026-04-13 20:10 50.30733 -119.30561 8849 ft 164 kts 192°
2026-04-13 20:11 50.29604 -119.30792 8849 ft 163 kts 193°
2026-04-13 20:11 50.28482 -119.31023 8843 ft 162 kts 192°
2026-04-13 20:11 50.27387 -119.31248 8845 ft 160 kts 194°
2026-04-13 20:11 50.26269 -119.31485 8854 ft 160 kts 191°
2026-04-13 20:12 50.25177 -119.31703 8859 ft 160 kts 193°
2026-04-13 20:12 50.24073 -119.31943 8859 ft 160 kts 193°
2026-04-13 20:12 50.22972 -119.32164 8859 ft 160 kts 191°
2026-04-13 20:12 50.21867 -119.32376 8856 ft 160 kts 191°
2026-04-13 20:13 50.20755 -119.32590 8855 ft 161 kts 192°
2026-04-13 20:13 50.19647 -119.32815 8854 ft 160 kts 193°
2026-04-13 20:13 50.18538 -119.33034 8719 ft 161 kts 193°
2026-04-13 20:13 50.17446 -119.33230 8384 ft 155 kts 196°
2026-04-13 20:14 50.16387 -119.33459 8048 ft 153 kts 195°
2026-04-13 20:14 50.15343 -119.33704 7732 ft 151 kts 197°
2026-04-13 20:14 50.14310 -119.33959 7411 ft 150 kts 197°
2026-04-13 20:14 50.13280 -119.34148 7088 ft 149 kts 194°
2026-04-13 20:15 50.12263 -119.34343 6798 ft 145 kts 197°
2026-04-13 20:15 50.11273 -119.34564 6487 ft 143 kts 194°
2026-04-13 20:15 50.10292 -119.34770 6154 ft 141 kts 198°
2026-04-13 20:15 50.09329 -119.34972 5786 ft 140 kts 195°
2026-04-13 20:16 50.08374 -119.35164 5420 ft 138 kts 193°
2026-04-13 20:16 50.07411 -119.35357 5039 ft 140 kts 189°
2026-04-13 20:16 50.06442 -119.35553 4718 ft 141 kts 191°
2026-04-13 20:16 50.05469 -119.35756 4429 ft 142 kts 190°
2026-04-13 20:17 50.04504 -119.35961 4139 ft 138 kts 193°
2026-04-13 20:17 50.03557 -119.36151 3826 ft 136 kts 195°
2026-04-13 20:17 50.02622 -119.36307 3492 ft 131 kts 194°
2026-04-13 20:17 50.01745 -119.36507 3156 ft 123 kts 196°
2026-04-13 20:18 50.00898 -119.36700 2824 ft 122 kts 195°
2026-04-13 20:18 50.00067 -119.36869 2487 ft 121 kts 191°
2026-04-13 20:18 49.99312 -119.37243 2102 ft 110 kts 218°
2026-04-13 20:18 49.98701 -119.37978 1809 ft 102 kts 216°
2026-04-13 20:19 49.98055 -119.38168 1702 ft 92 kts 187°
2026-04-13 20:19 49.97497 -119.38001 1610 ft 68 kts 186°
2026-04-13 20:19 49.97094 -119.37964 1528 ft 52 kts 189°
2026-04-13 20:19 49.96750 -119.37924 1466 ft 48 kts 191°
2026-04-13 20:20 49.96424 -119.37890 1421 ft 46 kts 193°
2026-04-13 20:20 49.96163 -119.37859 1420 ft 17 kts 175°
2026-04-13 20:20 49.96088 -119.37848 1420 ft 14 kts 173°
2026-04-13 20:20 49.95956 -119.37830 1420 ft 24 kts 177°
2026-04-13 20:21 49.95822 -119.37845 1419 ft 9 kts 224°
2026-04-13 20:21 49.95803 -119.37899 1419 ft 5 kts 256°
2026-04-13 20:21 49.95842 -119.37949 1418 ft 14 kts 349°
2026-04-13 20:21 49.95979 -119.37970 1419 ft 24 kts 356°
2026-04-13 20:22 49.96169 -119.37999 1418 ft 28 kts 351°
2026-04-13 20:22 49.96349 -119.38023 1418 ft 23 kts 354°
2026-04-13 20:22 49.96446 -119.38057 1418 ft 7 kts 294°
2026-04-13 20:22 49.96462 -119.38091 1418 ft 5 kts 357°
2026-04-13 20:23 49.96472 -119.38092 1418 ft 0 kts 359°
2026-04-13 20:28 49.96487 -119.38093 1418 ft 10 kts
2026-04-13 20:28 49.96575 -119.38056 1418 ft 14 kts 359°
2026-04-13 20:28 49.96613 -119.37952 1417 ft 12 kts 94°
2026-04-13 20:28 49.96591 -119.37909 1416 ft 0 kts 173°
2026-04-13 20:29 49.96539 -119.37904 1416 ft 33 kts 178°
2026-04-13 20:29 49.96183 -119.37831 1671 ft 57 kts 191°
2026-04-13 20:30 49.95762 -119.37923 2116 ft 66 kts 200°
2026-04-13 20:30 49.95217 -119.38153 2463 ft 88 kts 209°
2026-04-13 20:30 49.94732 -119.38721 2925 ft 91 kts 229°
2026-04-13 20:30 49.94344 -119.39453 3382 ft 88 kts 236°
2026-04-13 20:31 49.94104 -119.40372 3759 ft 98 kts 261°
2026-04-13 20:31 49.94262 -119.41514 3983 ft 122 kts 294°
2026-04-13 20:31 49.94905 -119.42496 4159 ft 139 kts 320°
2026-04-13 20:31 49.95758 -119.43284 4342 ft 145 kts 319°
2026-04-13 20:32 49.96603 -119.44156 4521 ft 148 kts 320°
2026-04-13 20:32 49.97464 -119.45060 4721 ft 151 kts 319°
2026-04-13 20:32 49.98308 -119.46061 4928 ft 153 kts 312°
2026-04-13 20:32 49.99113 -119.47141 5131 ft 153 kts 308°
2026-04-13 20:33 49.99909 -119.48233 5335 ft 152 kts 314°
2026-04-13 20:33 50.00715 -119.49275 5549 ft 149 kts 310°
2026-04-13 20:33 50.01479 -119.50322 5726 ft 144 kts 311°
2026-04-13 20:33 50.02235 -119.51358 5901 ft 149 kts 315°
2026-04-13 20:34 50.03116 -119.52361 5801 ft 151 kts 314°
2026-04-13 20:34 50.03890 -119.53406 6025 ft 144 kts 307°
2026-04-13 20:34 50.04621 -119.54462 6274 ft 144 kts 310°
2026-04-13 20:34 50.05374 -119.55487 6444 ft 142 kts 309°
2026-04-13 20:35 50.06112 -119.56485 6614 ft 139 kts 310°
2026-04-13 20:35 50.06864 -119.57414 6758 ft 137 kts 311°
2026-04-13 20:35 50.07566 -119.58394 6905 ft 133 kts 306°
2026-04-13 20:35 50.08211 -119.59392 6972 ft 131 kts 308°
2026-04-13 20:36 50.08898 -119.60346 7142 ft 134 kts 308°
2026-04-13 20:36 50.09604 -119.61293 7317 ft 134 kts 308°
2026-04-13 20:36 50.10315 -119.62227 7485 ft 134 kts 311°
2026-04-13 20:36 50.11038 -119.63171 7731 ft 138 kts 313°
2026-04-13 20:37 50.11759 -119.64174 7937 ft 140 kts 310°
2026-04-13 20:37 50.12514 -119.65247 7909 ft 154 kts 312°
2026-04-13 20:37 50.13336 -119.66363 7878 ft 159 kts 313°
2026-04-13 20:37 50.14155 -119.67492 7906 ft 149 kts 309°
2026-04-13 20:38 50.14897 -119.68601 7880 ft 150 kts 312°
2026-04-13 20:38 50.15688 -119.69664 7862 ft 149 kts 311°
2026-04-13 20:38 50.16471 -119.70694 7858 ft 150 kts 312°
2026-04-13 20:38 50.17247 -119.71762 7837 ft 149 kts 312°
2026-04-13 20:39 50.18051 -119.72816 7867 ft 152 kts 311°
2026-04-13 20:39 50.18841 -119.73902 7854 ft 150 kts 309°
2026-04-13 20:39 50.19611 -119.74965 7845 ft 146 kts 313°
2026-04-13 20:39 50.20382 -119.75998 7847 ft 146 kts 309°
2026-04-13 20:40 50.21156 -119.77054 7861 ft 149 kts 311°
2026-04-13 20:40 50.21960 -119.78111 7865 ft 151 kts 311°
2026-04-13 20:40 50.22742 -119.79190 7860 ft 149 kts 310°
2026-04-13 20:40 50.23521 -119.80252 7862 ft 150 kts 312°
2026-04-13 20:41 50.24307 -119.81309 7843 ft 149 kts 313°
2026-04-13 20:41 50.25093 -119.82381 7858 ft 151 kts 311°
2026-04-13 20:41 50.25895 -119.83439 7876 ft 151 kts 311°
2026-04-13 20:41 50.26673 -119.84535 7853 ft 149 kts 309°
2026-04-13 20:42 50.27459 -119.85609 7861 ft 150 kts 311°
2026-04-13 20:42 50.28252 -119.86689 7860 ft 153 kts 314°
2026-04-13 20:42 50.29049 -119.87778 7859 ft 151 kts 313°
2026-04-13 20:42 50.29818 -119.88887 7854 ft 150 kts 305°
2026-04-13 20:43 50.30587 -119.90013 7868 ft 154 kts 310°
2026-04-13 20:43 50.31411 -119.91118 7860 ft 157 kts 312°
2026-04-13 20:43 50.32251 -119.92222 7844 ft 158 kts 312°
2026-04-13 20:43 50.33122 -119.93275 7840 ft 157 kts 311°
2026-04-13 20:44 50.33919 -119.94414 7853 ft 154 kts 308°
2026-04-13 20:44 50.34699 -119.95570 7844 ft 154 kts 308°
2026-04-13 20:44 50.35493 -119.96710 7836 ft 155 kts 309°
2026-04-13 20:44 50.36290 -119.97815 7828 ft 152 kts 312°
2026-04-13 20:45 50.37106 -119.98877 7840 ft 152 kts 312°
2026-04-13 20:45 50.37904 -119.99970 7847 ft 154 kts 311°
2026-04-13 20:45 50.38732 -120.01044 7846 ft 155 kts 313°
2026-04-13 20:46 50.40327 -120.03321 7847 ft 155 kts 309°
2026-04-13 20:46 50.41115 -120.04413 7832 ft 152 kts 309°
2026-04-13 20:46 50.41895 -120.05547 7826 ft 153 kts 311°
2026-04-13 20:46 50.42698 -120.06654 7829 ft 154 kts 314°
2026-04-13 20:47 50.43507 -120.07735 7830 ft 152 kts 313°
2026-04-13 20:47 50.44292 -120.08818 7834 ft 148 kts 307°
2026-04-13 20:47 50.45068 -120.09897 7836 ft 151 kts 311°
2026-04-13 20:47 50.45860 -120.11002 7850 ft 155 kts 311°
2026-04-13 20:48 50.46667 -120.12138 7843 ft 156 kts 311°
2026-04-13 20:48 50.47508 -120.13218 7841 ft 156 kts 312°
2026-04-13 20:48 50.48312 -120.14330 7847 ft 154 kts 310°
2026-04-13 20:48 50.49103 -120.15478 7841 ft 156 kts 311°
2026-04-13 20:49 50.49916 -120.16641 7859 ft 161 kts 312°
2026-04-13 20:49 50.50753 -120.17807 7852 ft 162 kts 313°
2026-04-13 20:49 50.51572 -120.18989 7830 ft 159 kts 311°
2026-04-13 20:49 50.52409 -120.20135 7817 ft 160 kts 314°
2026-04-13 20:50 50.53240 -120.21278 7795 ft 157 kts 312°
2026-04-13 20:50 50.54053 -120.22414 7798 ft 156 kts 311°
2026-04-13 20:50 50.54858 -120.23552 7817 ft 156 kts 311°
2026-04-13 20:50 50.55668 -120.24683 7819 ft 156 kts 312°
2026-04-13 20:51 50.56488 -120.25810 7813 ft 157 kts 315°
2026-04-13 20:51 50.57319 -120.26935 7821 ft 158 kts 311°
2026-04-13 20:51 50.58134 -120.28079 7813 ft 156 kts 311°
2026-04-13 20:51 50.58908 -120.29163 7550 ft 138 kts 312°
2026-04-13 20:52 50.59708 -120.29916 7203 ft 140 kts 342°
2026-04-13 20:52 50.60673 -120.30070 6882 ft 139 kts 347°
2026-04-13 20:52 50.61650 -120.29781 6573 ft 147 kts
2026-04-13 20:52 50.62625 -120.29317 6258 ft 144 kts 11°
2026-04-13 20:53 50.63576 -120.28902 5842 ft 138 kts 356°
2026-04-13 20:53 50.64463 -120.29220 5424 ft 130 kts 330°
2026-04-13 20:53 50.65301 -120.29692 4984 ft 126 kts 329°
2026-04-13 20:53 50.66113 -120.30221 4539 ft 126 kts 329°
2026-04-13 20:54 50.66906 -120.30785 4069 ft 123 kts 328°
2026-04-13 20:54 50.67572 -120.31567 3623 ft 119 kts 303°
2026-04-13 20:54 50.68112 -120.32587 3212 ft 118 kts 305°
2026-04-13 20:54 50.68553 -120.33653 2850 ft 115 kts 292°
2026-04-13 20:55 50.68908 -120.34783 2343 ft 116 kts 285°
2026-04-13 20:55 50.69119 -120.35993 2039 ft 111 kts 282°
2026-04-13 20:55 50.69300 -120.37124 1772 ft 104 kts 281°
2026-04-13 20:55 50.69449 -120.38185 1603 ft 92 kts 275°
2026-04-13 20:56 50.69511 -120.39171 1669 ft 87 kts 275°
2026-04-13 20:56 50.69595 -120.40079 1621 ft 81 kts 281°
2026-04-13 20:56 50.69716 -120.40934 1521 ft 77 kts 283°
2026-04-13 20:56 50.69830 -120.41695 1415 ft 65 kts 280°
2026-04-13 20:57 50.69890 -120.42306 1321 ft 51 kts 277°
2026-04-13 20:57 50.70004 -120.42820 1230 ft 49 kts 269°
2026-04-13 20:57 50.70082 -120.43363 1149 ft 50 kts 273°
2026-04-13 20:57 50.70151 -120.43830 1133 ft 36 kts 283°
2026-04-13 20:58 50.70188 -120.44073 1134 ft 22 kts 283°
2026-04-13 20:58 50.70223 -120.44314 1134 ft 19 kts 283°
2026-04-13 20:58 50.70319 -120.44365 1134 ft 17 kts 25°
2026-04-13 20:58 50.70387 -120.44201 1135 ft 20 kts 61°
2026-04-13 20:59 50.70450 -120.44020 1133 ft 13 kts 63°
2026-04-13 20:59 50.70479 -120.43935 1133 ft 4 kts 61°
2026-04-13 20:59 50.70482 -120.43925 1133 ft 0 kts 60°